DMSP 5D-2 F13 DEB, 40434

Orbit data source: Space-Track

DMSP 5D-2 F13 DEB, 40434 is space debris in SSO originally from a launch on Fri, 24 Mar 1995 UTC launched from the Air Force Western Test Range (AFWTR). Debris objects in space refer to the collection of defunct objects orbiting the Earth. Examples of debris include non-operational satellites, rocket bodies, and fragments generated from explosions, collisions, or faulty payload assembly.

Loading next visibility...
Identifier
40434, 1995-015AL
Orbit
SSO
Country
Flag of USUS
Related business
Manufacturer
Unknown
Mission
Spacecraft
Bus & Motor
Unknown
Mass
Unknown
Launch date (UTC)
1995-03-24 (31 years ago)
Launch vehicle
Unknown
Launch site
Air Force Western Test Range (AFWTR)
Object type
Payload
Rocket body
Debris
Shape & HBR
Unknown shape, 0.1 m
Radar Cross Section
Small (<0.1 m²)

Expand to show TLE details & history
Last TLE update: 17 hours ago

TLE from 17 hours ago
0 DMSP 5D-2 F13 DEB
1 40434U 95015AL  25287.90739202  .00001742  00000-0  83088-3 0  9995
2 40434  99.0965 267.1863 0172322 188.2778 171.5543 14.13100150544708
Epoch: 2025-10-14T21:46Z
TLE epoch observation values (Epoch: 2025-10-14T21:46:38.670Z)
Latitude
0.00005°
Longitude
-83.16392°
Altitude
974.93 km
Speed
7.301 km/s
True Right ascension
17h 48m 44s
True Declination
0° 00' 00"
Sunlit
Object was in daylight at epoch
Visualization orbit readout
Latitude
Unknown
Longitude
Unknown
Altitude
Unknown
Speed
Unknown
Apparent Right ascension
Unknown
Apparent Declination
Unknown
Sunlit
N/A
Visualization observer readout
Local Sidereal Time
09:48:58
Azimuth
Unknown
Elevation
Unknown
Doppler factor
Unknown
Orbital elements
Apogee altitude
970.455 km
Perigee altitude
721.481 km
Semi-major axis
7,224.105 km
Eccentricity
0.01723
Inclination
99.0965°
RAAN
267.1863°
Arg. of periapsis
188.2778°
True anomaly
171.83827°
Mean anomaly
171.5543°
Eccentric anomaly
171.69688°
Mean motion
3.53482 °/min
Orbital period
101.84 mins
BSTAR
0.00083088

Documentation

Showing up to 5 results
|